KPF610 LOWS-LTAC

Flight info

Callsign KPF610
Flight time 2h 16m
Altitude 39000
Route NEMAL DCT ABRUK DCT GOTAR DCT NALOX DCT INVED DCT APROB DCT RIXEN UA17 NAMAN/N0441F270 A17 YAVRU
Aircraft CL60/M-SBDE1E2E3FGHIJ1J4J5J7M3RWXYZ/LB1V1D1

Departure

Time 2026-05-05 08:13
Airport Salzburg Airport (LOWS)

Arrival

Time 2026-05-05 10:29
Airport Esenboğa International Airport (LTAC)
Time Latitude Longitude Altitude Speed Heading
2026-05-05 08:09 47.79578 12.99861 1418 ft 4 kts 167°
2026-05-05 08:09 47.79557 12.99915 1418 ft 8 kts 83°
2026-05-05 08:09 47.79539 12.99996 1418 ft 10 kts 154°
2026-05-05 08:09 47.79459 13.00046 1418 ft 13 kts 158°
2026-05-05 08:10 47.79361 13.00106 1418 ft 16 kts 157°
2026-05-05 08:10 47.79248 13.00178 1418 ft 18 kts 156°
2026-05-05 08:10 47.79119 13.00259 1418 ft 21 kts 157°
2026-05-05 08:10 47.78978 13.00348 1418 ft 23 kts 156°
2026-05-05 08:11 47.78823 13.00447 1418 ft 24 kts 158°
2026-05-05 08:11 47.78658 13.00550 1418 ft 26 kts 156°
2026-05-05 08:11 47.78486 13.00661 1419 ft 27 kts 157°
2026-05-05 08:11 47.78321 13.00767 1419 ft 19 kts 156°
2026-05-05 08:12 47.78229 13.00834 1419 ft 10 kts 142°
2026-05-05 08:12 47.78183 13.00929 1419 ft 12 kts 100°
2026-05-05 08:12 47.78209 13.01059 1419 ft 13 kts 63°
2026-05-05 08:12 47.78254 13.01073 1419 ft 7 kts 336°
2026-05-05 08:13 47.78462 13.00940 1419 ft 77 kts 337°
2026-05-05 08:13 47.79274 13.00432 1445 ft 165 kts 337°
2026-05-05 08:13 47.80383 12.99753 2181 ft 172 kts 339°
2026-05-05 08:13 47.81369 12.99165 3006 ft 148 kts 337°
2026-05-05 08:14 47.82427 12.98830 3735 ft 173 kts
2026-05-05 08:14 47.83575 12.99639 4512 ft 199 kts 36°
2026-05-05 08:14 47.84768 13.00934 5297 ft 230 kts 37°
2026-05-05 08:14 47.86150 13.02427 6034 ft 263 kts 37°
2026-05-05 08:15 47.87687 13.04074 6774 ft 279 kts 37°
2026-05-05 08:15 47.89279 13.05774 7510 ft 282 kts 37°
2026-05-05 08:15 47.90870 13.07482 8268 ft 284 kts 39°
2026-05-05 08:15 47.92179 13.09599 9028 ft 283 kts 60°
2026-05-05 08:16 47.92848 13.12346 9786 ft 285 kts 84°
2026-05-05 08:16 47.92864 13.15331 10547 ft 294 kts 94°
2026-05-05 08:16 47.92765 13.18454 11289 ft 318 kts 94°
2026-05-05 08:16 47.92664 13.21876 12022 ft 341 kts 94°
2026-05-05 08:17 47.92558 13.25456 12848 ft 357 kts 94°
2026-05-05 08:17 47.92446 13.29216 13774 ft 368 kts 94°
2026-05-05 08:17 47.92332 13.33041 14734 ft 376 kts 94°
2026-05-05 08:17 47.92215 13.36924 15712 ft 382 kts 94°
2026-05-05 08:18 47.92093 13.40937 16648 ft 389 kts 93°
2026-05-05 08:18 47.91969 13.44973 17504 ft 396 kts 93°
2026-05-05 08:18 47.91709 13.49067 18374 ft 400 kts 102°
2026-05-05 08:18 47.90760 13.52937 19229 ft 403 kts 117°
2026-05-05 08:19 47.89471 13.56665 20001 ft 409 kts 118°
2026-05-05 08:19 47.88161 13.60445 20808 ft 414 kts 118°
2026-05-05 08:19 47.86837 13.64266 21589 ft 419 kts 118°
2026-05-05 08:19 47.85481 13.68176 22328 ft 424 kts 118°
2026-05-05 08:20 47.84123 13.72085 23048 ft 429 kts 118°
2026-05-05 08:20 47.82752 13.76026 23720 ft 435 kts 118°
2026-05-05 08:20 47.81352 13.80046 24432 ft 439 kts 118°
2026-05-05 08:20 47.79943 13.84085 25095 ft 443 kts 118°
2026-05-05 08:21 47.78512 13.88180 25703 ft 448 kts 118°
2026-05-05 08:21 47.77073 13.92290 26298 ft 452 kts 118°
2026-05-05 08:21 47.75620 13.96437 26886 ft 456 kts 118°
2026-05-05 08:21 47.74146 14.00637 27421 ft 460 kts 118°
2026-05-05 08:22 47.72653 14.04882 27940 ft 464 kts 118°
2026-05-05 08:22 47.71150 14.09152 28439 ft 467 kts 118°
2026-05-05 08:22 47.69643 14.13423 28926 ft 470 kts 118°
2026-05-05 08:22 47.68120 14.17734 29376 ft 473 kts 118°
2026-05-05 08:23 47.66588 14.22064 29878 ft 474 kts 118°
2026-05-05 08:23 47.65058 14.26381 30456 ft 473 kts 118°
2026-05-05 08:23 47.63533 14.30679 31034 ft 471 kts 119°
2026-05-05 08:23 47.62009 14.34966 31619 ft 469 kts 119°
2026-05-05 08:24 47.60475 14.39271 32191 ft 466 kts 119°
2026-05-05 08:24 47.58962 14.43515 32691 ft 465 kts 119°
2026-05-05 08:24 47.57462 14.47712 33171 ft 464 kts 119°
2026-05-05 08:24 47.55944 14.51953 33614 ft 463 kts 119°
2026-05-05 08:25 47.54425 14.56189 34066 ft 462 kts 119°
2026-05-05 08:25 47.52919 14.60385 34487 ft 462 kts 119°
2026-05-05 08:25 47.51414 14.64569 34866 ft 461 kts 119°
2026-05-05 08:25 47.49899 14.68775 35232 ft 460 kts 120°
2026-05-05 08:26 47.48370 14.73013 35560 ft 459 kts 120°
2026-05-05 08:26 47.46875 14.77149 35901 ft 458 kts 120°
2026-05-05 08:26 47.45360 14.81336 36205 ft 458 kts 120°
2026-05-05 08:26 47.43860 14.85474 36507 ft 457 kts 120°
2026-05-05 08:27 47.42376 14.89561 36875 ft 456 kts 120°
2026-05-05 08:27 47.40865 14.93717 37229 ft 455 kts 120°
2026-05-05 08:27 47.39365 14.97834 37575 ft 455 kts 120°
2026-05-05 08:27 47.37908 15.01959 37895 ft 455 kts 117°
2026-05-05 08:28 47.36591 15.06191 38190 ft 455 kts 116°
2026-05-05 08:28 47.35263 15.10500 38455 ft 456 kts 116°
2026-05-05 08:28 47.33954 15.14730 38743 ft 455 kts 116°
2026-05-05 08:28 47.32625 15.19018 38927 ft 457 kts 116°
2026-05-05 08:29 47.29955 15.27605 38906 ft 465 kts 116°
2026-05-05 08:30 47.25872 15.40672 38914 ft 469 kts 116°
2026-05-05 08:30 47.23147 15.49355 38907 ft 468 kts 116°
2026-05-05 08:31 47.20421 15.58010 38908 ft 467 kts 116°
2026-05-05 08:31 47.17681 15.66675 38900 ft 467 kts 117°
2026-05-05 08:32 47.14925 15.75361 38898 ft 467 kts 117°
2026-05-05 08:32 47.12178 15.83991 38892 ft 467 kts 117°
2026-05-05 08:33 47.09400 15.92683 38879 ft 467 kts 117°
2026-05-05 08:33 47.06648 16.01268 38872 ft 467 kts 116°
2026-05-05 08:34 47.03868 16.09910 38877 ft 466 kts 116°
2026-05-05 08:34 47.01100 16.18483 38885 ft 466 kts 117°
2026-05-05 08:35 46.98729 16.27357 38900 ft 467 kts 108°
2026-05-05 08:35 46.96815 16.36406 38913 ft 468 kts 108°
2026-05-05 08:36 46.94861 16.45561 38901 ft 468 kts 108°
2026-05-05 08:36 46.92914 16.54640 38917 ft 468 kts 108°
2026-05-05 08:37 46.90951 16.63743 38921 ft 468 kts 108°
2026-05-05 08:37 46.88978 16.72852 38917 ft 468 kts 109°
2026-05-05 08:38 46.86999 16.81982 38930 ft 468 kts 108°
2026-05-05 08:38 46.85311 16.91164 38933 ft 469 kts 106°
2026-05-05 08:39 46.83644 17.00351 38926 ft 469 kts 106°
2026-05-05 08:39 46.81963 17.09555 38932 ft 469 kts 106°
2026-05-05 08:40 46.80273 17.18758 38934 ft 469 kts 106°
2026-05-05 08:40 46.78579 17.27937 38938 ft 470 kts 106°
2026-05-05 08:41 46.76861 17.37191 38941 ft 470 kts 105°
2026-05-05 08:41 46.75152 17.46353 38942 ft 469 kts 105°
2026-05-05 08:42 46.73434 17.55516 38947 ft 469 kts 105°
2026-05-05 08:42 46.71707 17.64679 38951 ft 469 kts 105°
2026-05-05 08:43 46.69964 17.73879 38949 ft 469 kts 106°
2026-05-05 08:43 46.68223 17.83027 38960 ft 468 kts 106°
2026-05-05 08:44 46.66476 17.92163 38970 ft 468 kts 106°
2026-05-05 08:44 46.64723 18.01282 38977 ft 469 kts 106°
2026-05-05 08:45 46.62956 18.10430 38984 ft 469 kts 106°
2026-05-05 08:45 46.61183 18.19569 38978 ft 469 kts 106°
2026-05-05 08:46 46.59405 18.28688 38989 ft 468 kts 106°
2026-05-05 08:46 46.57609 18.37852 38979 ft 468 kts 106°
2026-05-05 08:47 46.55817 18.46955 38986 ft 468 kts 105°
2026-05-05 08:47 46.54021 18.56039 38995 ft 468 kts 105°
2026-05-05 08:48 46.52231 18.65051 38986 ft 469 kts 107°
2026-05-05 08:48 46.50411 18.74167 38983 ft 469 kts 107°
2026-05-05 08:49 46.48587 18.83259 38988 ft 469 kts 106°
2026-05-05 08:49 46.46760 18.92330 38985 ft 468 kts 106°
2026-05-05 08:50 46.44917 19.01438 38985 ft 468 kts 106°
2026-05-05 08:50 46.43077 19.10488 38988 ft 468 kts 106°
2026-05-05 08:51 46.41237 19.19500 38990 ft 468 kts 106°
2026-05-05 08:51 46.39375 19.28575 38991 ft 468 kts 106°
2026-05-05 08:52 46.37516 19.37596 38994 ft 468 kts 106°
2026-05-05 08:52 46.35646 19.46630 38994 ft 468 kts 106°
2026-05-05 08:53 46.33774 19.55630 38999 ft 468 kts 106°
2026-05-05 08:53 46.31898 19.64615 38995 ft 468 kts 105°
2026-05-05 08:54 46.30000 19.73661 38997 ft 468 kts 106°
2026-05-05 08:54 46.28092 19.82716 38997 ft 468 kts 106°
2026-05-05 08:55 46.26193 19.91689 38998 ft 467 kts 106°
2026-05-05 08:55 46.24287 20.00653 38994 ft 466 kts 106°
2026-05-05 08:56 46.22378 20.09590 38994 ft 466 kts 106°
2026-05-05 08:56 46.20463 20.18522 39001 ft 466 kts 106°
2026-05-05 08:57 46.18541 20.27446 39002 ft 467 kts 106°
2026-05-05 08:57 46.16587 20.36433 39005 ft 468 kts 107°
2026-05-05 08:58 46.13737 20.44834 38989 ft 469 kts 121°
2026-05-05 08:58 46.10258 20.52755 39007 ft 469 kts 121°
2026-05-05 08:59 46.06753 20.60726 39007 ft 468 kts 121°
2026-05-05 08:59 46.03268 20.68630 39010 ft 469 kts 122°
2026-05-05 09:00 45.99744 20.76596 39013 ft 469 kts 122°
2026-05-05 09:00 45.96241 20.84495 39016 ft 469 kts 122°
2026-05-05 09:01 45.92730 20.92388 39018 ft 469 kts 122°
2026-05-05 09:01 45.89192 21.00319 39032 ft 469 kts 122°
2026-05-05 09:02 45.85665 21.08202 39029 ft 470 kts 122°
2026-05-05 09:02 45.82106 21.16135 39026 ft 470 kts 122°
2026-05-05 09:03 45.78546 21.24047 39035 ft 470 kts 122°
2026-05-05 09:03 45.75002 21.31902 39030 ft 471 kts 122°
2026-05-05 09:04 45.71435 21.39786 39028 ft 471 kts 122°
2026-05-05 09:04 45.67864 21.47655 39031 ft 472 kts 122°
2026-05-05 09:05 45.64283 21.55527 39041 ft 471 kts 121°
2026-05-05 09:05 45.60698 21.63384 39036 ft 471 kts 121°
2026-05-05 09:06 45.57113 21.71217 39034 ft 472 kts 122°
2026-05-05 09:06 45.53501 21.79090 39035 ft 472 kts 122°
2026-05-05 09:07 45.49903 21.86910 39035 ft 472 kts 122°
2026-05-05 09:07 45.46309 21.94701 39039 ft 471 kts 122°
2026-05-05 09:08 45.42700 22.02502 39055 ft 471 kts 122°
2026-05-05 09:08 45.39086 22.10293 39057 ft 471 kts 122°
2026-05-05 09:09 45.35470 22.18066 39062 ft 470 kts 122°
2026-05-05 09:09 45.31862 22.25801 39061 ft 471 kts 122°
2026-05-05 09:10 45.28243 22.33541 39074 ft 471 kts 122°
2026-05-05 09:10 45.24607 22.41294 39087 ft 471 kts 121°
2026-05-05 09:11 45.20972 22.49024 39094 ft 472 kts 122°
2026-05-05 09:11 45.17331 22.56745 39098 ft 472 kts 122°
2026-05-05 09:12 45.13663 22.64502 39091 ft 472 kts 122°
2026-05-05 09:12 45.10007 22.72214 39081 ft 471 kts 122°
2026-05-05 09:13 45.06341 22.79926 39066 ft 472 kts 122°
2026-05-05 09:13 45.02660 22.87649 39054 ft 472 kts 122°
2026-05-05 09:14 44.98995 22.95317 39044 ft 472 kts 122°
2026-05-05 09:14 44.95302 23.03023 39036 ft 472 kts 122°
2026-05-05 09:15 44.91620 23.10685 39035 ft 472 kts 122°
2026-05-05 09:15 44.87913 23.18380 39030 ft 473 kts 122°
2026-05-05 09:16 44.84217 23.26030 39034 ft 473 kts 122°
2026-05-05 09:16 44.80502 23.33702 39033 ft 474 kts 122°
2026-05-05 09:17 44.76791 23.41342 39029 ft 473 kts 122°
2026-05-05 09:17 44.73074 23.48976 39028 ft 473 kts 122°
2026-05-05 09:18 44.69344 23.56614 39035 ft 473 kts 122°
2026-05-05 09:18 44.65615 23.64231 39037 ft 474 kts 122°
2026-05-05 09:19 44.61854 23.71894 39043 ft 474 kts 122°
2026-05-05 09:19 44.58107 23.79508 39047 ft 474 kts 122°
2026-05-05 09:20 44.54367 23.87086 39052 ft 473 kts 122°
2026-05-05 09:20 44.50599 23.94702 39057 ft 473 kts 122°
2026-05-05 09:21 44.46834 24.02292 39059 ft 472 kts 122°
2026-05-05 09:21 44.43102 24.09794 39061 ft 472 kts 122°
2026-05-05 09:22 44.39336 24.17346 39053 ft 472 kts 122°
2026-05-05 09:22 44.35576 24.24868 39049 ft 472 kts 122°
2026-05-05 09:23 44.31793 24.32413 39043 ft 472 kts 122°
2026-05-05 09:23 44.28026 24.39909 39038 ft 472 kts 122°
2026-05-05 09:24 44.24261 24.47382 39039 ft 472 kts 122°
2026-05-05 09:24 44.20484 24.54858 39037 ft 472 kts 122°
2026-05-05 09:25 44.16686 24.62357 39036 ft 472 kts 122°
2026-05-05 09:25 44.12909 24.69797 39035 ft 472 kts 123°
2026-05-05 09:26 44.09114 24.77250 39031 ft 471 kts 123°
2026-05-05 09:26 44.05307 24.84709 39030 ft 470 kts 123°
2026-05-05 09:27 44.01525 24.92101 39035 ft 470 kts 123°
2026-05-05 09:27 43.97721 24.99521 39035 ft 471 kts 123°
2026-05-05 09:28 43.94113 25.07077 39034 ft 470 kts 121°
2026-05-05 09:28 43.90546 25.14626 39035 ft 470 kts 121°
2026-05-05 09:29 43.86944 25.22230 39039 ft 469 kts 121°
2026-05-05 09:29 43.83363 25.29768 39041 ft 469 kts 121°
2026-05-05 09:30 43.79757 25.37338 39052 ft 470 kts 121°
2026-05-05 09:30 43.76158 25.44873 39048 ft 470 kts 121°
2026-05-05 09:31 43.72543 25.52423 39055 ft 471 kts 121°
2026-05-05 09:31 43.68948 25.59910 39050 ft 470 kts 121°
2026-05-05 09:32 43.65302 25.67484 39050 ft 470 kts 121°
2026-05-05 09:32 43.61698 25.74952 39055 ft 470 kts 121°
2026-05-05 09:33 43.58041 25.82510 39050 ft 471 kts 121°
2026-05-05 09:33 43.54408 25.89997 39060 ft 471 kts 121°
2026-05-05 09:34 43.50756 25.97505 39059 ft 471 kts 121°
2026-05-05 09:34 43.47116 26.04969 39062 ft 470 kts 121°
2026-05-05 09:35 43.43456 26.12457 39061 ft 470 kts 121°
2026-05-05 09:35 43.37961 26.23663 39061 ft 471 kts 122°
2026-05-05 09:36 43.34294 26.31117 39063 ft 471 kts 122°
2026-05-05 09:36 43.30627 26.38551 39062 ft 471 kts 122°
2026-05-05 09:37 43.26928 26.46033 39064 ft 471 kts 122°
2026-05-05 09:37 43.23250 26.53452 39062 ft 471 kts 122°
2026-05-05 09:38 43.19567 26.60862 39061 ft 471 kts 122°
2026-05-05 09:38 43.15866 26.68289 39060 ft 471 kts 123°
2026-05-05 09:39 43.12169 26.75693 39058 ft 471 kts 123°
2026-05-05 09:39 43.08473 26.83073 39059 ft 471 kts 123°
2026-05-05 09:40 43.04744 26.90501 39056 ft 471 kts 122°
2026-05-05 09:40 43.01039 26.97864 39061 ft 471 kts 123°
2026-05-05 09:41 42.97329 27.05218 39060 ft 471 kts 123°
2026-05-05 09:41 42.93603 27.12584 39066 ft 470 kts 123°
2026-05-05 09:42 42.89870 27.19947 39061 ft 471 kts 123°
2026-05-05 09:42 42.86129 27.27307 39065 ft 470 kts 122°
2026-05-05 09:43 42.82392 27.34643 39067 ft 471 kts 122°
2026-05-05 09:43 42.78657 27.41955 39071 ft 471 kts 122°
2026-05-05 09:44 42.74910 27.49272 39073 ft 471 kts 122°
2026-05-05 09:44 42.71167 27.56564 39078 ft 471 kts 122°
2026-05-05 09:45 42.67410 27.63866 39078 ft 471 kts 122°
2026-05-05 09:45 42.63642 27.71171 39078 ft 472 kts 123°
2026-05-05 09:46 42.59863 27.78479 39081 ft 473 kts 123°
2026-05-05 09:46 42.56079 27.85780 39076 ft 473 kts 123°
2026-05-05 09:47 42.52300 27.93052 39081 ft 472 kts 123°
2026-05-05 09:47 42.48526 28.00298 39082 ft 472 kts 123°
2026-05-05 09:48 42.44719 28.07589 39085 ft 473 kts 123°
2026-05-05 09:48 42.40918 28.14853 39078 ft 473 kts 123°
2026-05-05 09:49 42.37120 28.22091 39076 ft 473 kts 123°
2026-05-05 09:49 42.33311 28.29333 39071 ft 473 kts 123°
2026-05-05 09:50 42.29495 28.36572 39075 ft 473 kts 123°
2026-05-05 09:50 42.25686 28.43780 39079 ft 473 kts 123°
2026-05-05 09:51 42.21852 28.51017 39076 ft 473 kts 123°
2026-05-05 09:51 42.18015 28.58244 39073 ft 473 kts 123°
2026-05-05 09:52 42.14188 28.65433 39075 ft 472 kts 124°
2026-05-05 09:52 42.10365 28.72599 39072 ft 472 kts 124°
2026-05-05 09:53 42.06667 28.79871 39071 ft 472 kts 120°
2026-05-05 09:53 42.03178 28.87337 39073 ft 472 kts 120°
2026-05-05 09:54 41.99660 28.94839 39073 ft 473 kts 120°
2026-05-05 09:54 41.96151 29.02298 39067 ft 474 kts 120°
2026-05-05 09:55 41.92637 29.09747 39067 ft 474 kts 120°
2026-05-05 09:55 41.89096 29.17235 39063 ft 474 kts 120°
2026-05-05 09:56 41.85537 29.24741 39064 ft 474 kts 120°
2026-05-05 09:56 41.82018 29.32141 39067 ft 473 kts 120°
2026-05-05 09:57 41.78466 29.39595 39068 ft 474 kts 120°
2026-05-05 09:57 41.74903 29.47050 39061 ft 474 kts 120°
2026-05-05 09:58 41.71349 29.54470 39061 ft 475 kts 120°
2026-05-05 09:58 41.67781 29.61898 39061 ft 475 kts 120°
2026-05-05 09:59 41.64190 29.69358 39059 ft 475 kts 121°
2026-05-05 09:59 41.60608 29.76780 39050 ft 476 kts 121°
2026-05-05 10:00 41.57026 29.84184 39052 ft 476 kts 121°
2026-05-05 10:00 41.53420 29.91619 39048 ft 476 kts 121°
2026-05-05 10:01 41.49827 29.99009 39055 ft 476 kts 121°
2026-05-05 10:01 41.46228 30.06394 39062 ft 476 kts 121°
2026-05-05 10:02 41.42599 30.13824 39067 ft 477 kts 121°
2026-05-05 10:02 41.38984 30.21203 39034 ft 477 kts 121°
2026-05-05 10:03 41.35347 30.28612 39059 ft 478 kts 121°
2026-05-05 10:03 41.31702 30.36018 39056 ft 477 kts 121°
2026-05-05 10:04 41.28037 30.43450 39061 ft 478 kts 120°
2026-05-05 10:04 41.24393 30.50818 39046 ft 478 kts 121°
2026-05-05 10:05 41.20722 30.58225 39042 ft 479 kts 121°
2026-05-05 10:05 41.17041 30.65632 39047 ft 477 kts 121°
2026-05-05 10:06 41.13380 30.72983 39033 ft 479 kts 121°
2026-05-05 10:06 41.09684 30.80385 39045 ft 478 kts 121°
2026-05-05 10:07 41.06023 30.87700 39055 ft 478 kts 121°
2026-05-05 10:07 41.02322 30.95078 39035 ft 479 kts 121°
2026-05-05 10:08 40.98645 31.02427 39035 ft 478 kts 121°
2026-05-05 10:08 40.95021 31.09764 39008 ft 479 kts 121°
2026-05-05 10:09 40.91346 31.17183 38927 ft 480 kts 121°
2026-05-05 10:09 40.89516 31.20872 38429 ft 481 kts 120°
2026-05-05 10:09 40.87679 31.24567 37841 ft 477 kts 120°
2026-05-05 10:10 40.85862 31.28218 37224 ft 475 kts 120°
2026-05-05 10:10 40.84052 31.31852 36607 ft 472 kts 120°
2026-05-05 10:10 40.82257 31.35452 35985 ft 470 kts 119°
2026-05-05 10:10 40.80435 31.39100 35421 ft 474 kts 119°
2026-05-05 10:11 40.78614 31.42748 34664 ft 480 kts 118°
2026-05-05 10:11 40.76780 31.46415 33991 ft 475 kts 118°
2026-05-05 10:11 40.74984 31.49993 33414 ft 470 kts 118°
2026-05-05 10:11 40.73180 31.53589 32806 ft 471 kts 118°
2026-05-05 10:12 40.71359 31.57219 32182 ft 474 kts 118°
2026-05-05 10:12 40.69538 31.60842 31553 ft 476 kts 118°
2026-05-05 10:12 40.67703 31.64488 30914 ft 478 kts 118°
2026-05-05 10:12 40.65856 31.68155 30258 ft 480 kts 118°
2026-05-05 10:13 40.63998 31.71839 29630 ft 482 kts 118°
2026-05-05 10:13 40.62124 31.75549 28976 ft 482 kts 118°
2026-05-05 10:13 40.60287 31.79179 28350 ft 479 kts 118°
2026-05-05 10:13 40.58437 31.82829 27695 ft 473 kts 118°
2026-05-05 10:14 40.56604 31.86397 27091 ft 466 kts 119°
2026-05-05 10:14 40.54793 31.89905 26437 ft 461 kts 119°
2026-05-05 10:14 40.53014 31.93345 25849 ft 454 kts 119°
2026-05-05 10:14 40.51234 31.96788 25230 ft 450 kts 119°
2026-05-05 10:15 40.49499 32.00138 24650 ft 444 kts 119°
2026-05-05 10:15 40.47752 32.03510 24053 ft 437 kts 119°
2026-05-05 10:15 40.46054 32.06781 23493 ft 431 kts 119°
2026-05-05 10:15 40.44383 32.09998 22924 ft 423 kts 119°
2026-05-05 10:16 40.42732 32.13174 22383 ft 416 kts 119°
2026-05-05 10:16 40.41364 32.16400 21834 ft 402 kts 108°
2026-05-05 10:16 40.40338 32.19819 21295 ft 394 kts 107°
2026-05-05 10:16 40.39347 32.23132 20784 ft 389 kts 107°
2026-05-05 10:17 40.38359 32.26418 20274 ft 383 kts 107°
2026-05-05 10:17 40.37388 32.29649 19758 ft 377 kts 107°
2026-05-05 10:17 40.36426 32.32848 19265 ft 371 kts 107°
2026-05-05 10:17 40.35653 32.36024 18772 ft 363 kts 101°
2026-05-05 10:18 40.35041 32.39195 18295 ft 356 kts 101°
2026-05-05 10:18 40.34433 32.42324 17820 ft 351 kts 101°
2026-05-05 10:18 40.33838 32.45380 17359 ft 345 kts 101°
2026-05-05 10:18 40.33241 32.48438 16896 ft 339 kts 101°
2026-05-05 10:19 40.32664 32.51391 16447 ft 334 kts 101°
2026-05-05 10:19 40.32095 32.54305 16010 ft 328 kts 101°
2026-05-05 10:19 40.31529 32.57191 15573 ft 323 kts 101°
2026-05-05 10:19 40.30974 32.60020 15155 ft 318 kts 101°
2026-05-05 10:20 40.30422 32.62823 14739 ft 313 kts 102°
2026-05-05 10:20 40.29547 32.65419 14273 ft 314 kts 125°
2026-05-05 10:20 40.27828 32.67205 13745 ft 319 kts 155°
2026-05-05 10:20 40.25641 32.67656 13203 ft 322 kts 185°
2026-05-05 10:21 40.23372 32.67016 12636 ft 322 kts 194°
2026-05-05 10:21 40.21197 32.66291 12264 ft 316 kts 193°
2026-05-05 10:21 40.19062 32.65590 11867 ft 312 kts 193°
2026-05-05 10:21 40.16976 32.64906 11466 ft 308 kts 193°
2026-05-05 10:22 40.14897 32.64228 11059 ft 304 kts 193°
2026-05-05 10:22 40.12838 32.63575 10649 ft 301 kts 190°
2026-05-05 10:22 40.10748 32.63488 10161 ft 298 kts 170°
2026-05-05 10:22 40.08826 32.64352 9666 ft 294 kts 149°
2026-05-05 10:23 40.07255 32.66068 9138 ft 292 kts 128°
2026-05-05 10:23 40.06280 32.68352 8507 ft 290 kts 106°
2026-05-05 10:23 40.05807 32.70820 8220 ft 271 kts 102°
2026-05-05 10:23 40.05140 32.73090 7867 ft 261 kts 121°
2026-05-05 10:24 40.04105 32.74974 7528 ft 251 kts 125°
2026-05-05 10:24 40.03091 32.76779 7200 ft 242 kts 125°
2026-05-05 10:24 40.02118 32.78517 6898 ft 231 kts 125°
2026-05-05 10:24 40.01208 32.80141 6586 ft 216 kts 125°
2026-05-05 10:25 40.00339 32.81692 6308 ft 206 kts 125°
2026-05-05 10:25 39.99534 32.83220 6006 ft 204 kts 116°
2026-05-05 10:25 39.99121 32.84980 5691 ft 198 kts 94°
2026-05-05 10:25 39.99452 32.86626 5617 ft 189 kts 49°
2026-05-05 10:26 40.00455 32.87655 5643 ft 183 kts 31°
2026-05-05 10:26 40.01512 32.88602 5567 ft 182 kts 34°
2026-05-05 10:26 40.02537 32.89579 5322 ft 180 kts 35°
2026-05-05 10:26 40.03527 32.90525 5110 ft 174 kts 34°
2026-05-05 10:27 40.04505 32.91453 4875 ft 172 kts 34°
2026-05-05 10:27 40.05466 32.92365 4629 ft 168 kts 34°
2026-05-05 10:27 40.06397 32.93251 4413 ft 158 kts 34°
2026-05-05 10:27 40.07258 32.94070 4240 ft 152 kts 34°
2026-05-05 10:28 40.08115 32.94884 4025 ft 150 kts 34°
2026-05-05 10:28 40.08958 32.95684 3812 ft 149 kts 34°
2026-05-05 10:28 40.09794 32.96470 3637 ft 145 kts 34°
2026-05-05 10:28 40.10621 32.97261 3460 ft 154 kts 35°
2026-05-05 10:29 40.11471 32.98072 3259 ft 146 kts 35°
2026-05-05 10:29 40.12269 32.98835 3129 ft 133 kts 34°
2026-05-05 10:29 40.12957 32.99492 3128 ft 110 kts 36°
2026-05-05 10:29 40.13419 32.99925 3133 ft 47 kts 36°
2026-05-05 10:30 40.13584 33.00084 3135 ft 13 kts 33°
2026-05-05 10:30 40.13668 33.00051 3133 ft 15 kts 303°
2026-05-05 10:30 40.13724 32.99965 3130 ft 12 kts 346°
2026-05-05 10:30 40.13809 33.00026 3130 ft 16 kts 36°
2026-05-05 10:31 40.13898 33.00111 3131 ft 14 kts 36°
2026-05-05 10:31 40.13963 33.00171 3131 ft 5 kts 34°
2026-05-05 10:31 40.14001 33.00159 3131 ft 9 kts 301°
2026-05-05 10:31 40.14044 33.00080 3128 ft 8 kts 302°
2026-05-05 10:32 40.14043 33.00036 3127 ft 0 kts 215°